AirNav   Everest Fuels
 
 658 users online  

65J Wrens Memorial Airport
Wrens, Georgia, USA

GOING TO WRENS?


FAA INFORMATION EFFECTIVE 02 JANUARY 2020

Location

FAA Identifier: 65J
Lat/Long: 33-13-22.0000N 082-23-04.2000W
33-13.366667N 082-23.070000W
33.2227778,-82.3845000
(estimated)
Elevation: 450 ft. / 137 m (estimated)
Variation: 03W (1985)
From city: 1 mile N of WRENS, GA
Time zone: UTC -5 (UTC -4 during Daylight Saving Time)
Zip code: 30833

Airport Operations

Airport use: Open to the public
Activation date: 10/1967
Control tower: no
ARTCC: ATLANTA CENTER
FSS: MACON FLIGHT SERVICE STATION
NOTAMs facility: MCN (NOTAM-D service available)
Attendance: UNATNDD
Wind indicator: lighted
Segmented circle: yes
Lights: ACTVT MIRL RY 11/29 - CTAF.
Beacon: white-green (lighted land airport)
ROTG BCN OTS INDEFLY. Operates sunset to sunrise.

Airport Communications

CTAF/UNICOM: 122.7
WX AWOS-3PT at 2J3 (14 nm S): 119.35 (478-625-8303)
WX AWOS-3 at HQU (20 nm N): 120.625 (706-597-9801)

Nearby radio navigation aids

VOR radial/distance  VOR name  Freq  Var
IRQr205/31.1COLLIERS VORTAC113.9004W

 
NDB name  Hdg/Dist  Freq  Var  ID
EMORY237/24.238504WEMR . -- .-.
EMANUEL COUNTY012/33.630906WEEX . . -..-
CULVR088/39.238004WUMB ..- -- -...
WASHINGTON/WILKES COUNTY150/39.543503WIIY .. .. -.--

Airport Services

Parking: tiedowns
Airframe service: NONE
Powerplant service: NONE
Bottled oxygen: NONE
Bulk oxygen: NONE

Runway Information

Runway 11/29

Dimensions: 3000 x 50 ft. / 914 x 15 m
Surface: asphalt, in good condition
Weight bearing capacity: 
Single wheel: 20.0
Runway edge lights: medium intensity
RUNWAY 11  RUNWAY 29
Latitude: 33-13.440667N33-13.292000N
Longitude: 082-23.350667W082-22.789167W
Traffic pattern: leftleft
Markings: basic, in good conditionbasic, in good condition
Obstructions: 5 ft. gnd, 201 ft. from runway, 120 ft. right of centerline
3-5FT GROUND, 120FT R, 0-200FT FROM RY END.
12 ft. road, 440 ft. from runway, 145 ft. right of centerline, 20:1 slope to clear
SLOPE IS 34:1 TO THLD. ROAD 440' FROM E.O.R.

Airport Ownership and Management from official FAA records

Ownership: Publicly-owned
Owner: CITY OF WRENS
CITY HALL, PO BOX 125
WRENS, GA 30833
Phone 706-547-3000
Manager: ARTIE THRIFT
CITY HALL, PO BOX 125
WRENS, GA 30833
Phone 706-547-3000
CITY ADMINISTRATOR

Airport Operational Statistics

Aircraft based on the field: 7
Single engine airplanes: 6
Helicopters: 1
    
Aircraft operations: avg 38/week *
60% local general aviation
40% transient general aviation
* for 12-month period ending 31 December 2017

Additional Remarks

FOR CD CTC AUGUSTA APCH AT 706-771-1777, WHEN APCH CLSD CTC ATLANTA ARTCC AT 770-210-7692.

Instrument Procedures

There are no published instrument procedures at 65J.

Some nearby airports with instrument procedures:

2J3 - Louisville Municipal Airport (14 nm S)
KHQU - Thomson-McDuffie County Airport (20 nm N)
KBXG - Burke County Airport (22 nm SE)
KDNL - Daniel Field Airport (23 nm NE)
KAGS - Augusta Regional Airport at Bush Field (23 nm NE)
 
Loc | Ops | Rwys | IFR | FBO | Links
Com | Nav | Svcs | Stats | Notes
Area around 65J (Wrens Memorial Airport)
 
Road maps at: MapQuest Bing Google
 
Aerial photo
WARNING: Photo may not be current or correct
Aerial photo of 65J (Wrens Memorial Airport)
Photo by Steven Amster
Photo taken 18-Feb-2013
looking north from 2200 ft MSL (1750 ft AGL) from his Cessna 172S.

Do you have a better or more recent aerial photo of Wrens Memorial Airport that you would like to share? If so, please send us your photo.

 
Sectional chart

 
Airport distance calculator
Flying to Wrens Memorial Airport? Find the distance to fly.

From to 65J

Sunrise and sunset
Times for 20-Jan-2020
 Local
(UTC-5)
 Zulu
(UTC)
Morning civil twilight07:0612:06
Sunrise07:3312:33
Sunset17:4922:49
Evening civil twilight18:1523:15

Current date and time
Zulu (UTC)  20-Jan-2020 10:02:25
Local (UTC-5)  20-Jan-2020 05:02:25
 
METAR
K2J3 
14nm S 
200930Z AUTO 33005KT 10SM CLR 00/M05 A3022 RMK AO2 T00011049
KHQU 
20nm N 
200955Z AUTO 04005KT 10SM CLR M01/M05 A3023 RMK AO2 T10141051
KAGS 
23nm NE 
200953Z AUTO 02009KT 10SM CLR 02/M06 A3022 RMK AO2 SLP235 T00171056 $
KDNL 
23nm NE 
200953Z AUTO 36007KT 10SM CLR 01/M07 A3022 RMK AO2 SLP235 T00111067
KOKZ 
27nm SW 
200955Z AUTO 31004KT 10SM CLR 01/M05 A3023 RMK AO2 T00051052
TAF
KAGS 
23nm NE 
200525Z 2006/2106 33008KT P6SM SKC FM200800 36007KT P6SM SKC FM201300 36008G15KT P6SM SKC FM202000 01007KT P6SM SKC
KDNL 
23nm NE 
200525Z 2006/2106 33008KT P6SM SKC FM200800 36007KT P6SM SKC FM201300 36008G15KT P6SM SKC FM202000 01007KT P6SM SKC
NOTAMs
Click for the latest NOTAMs
NOTAMs are issued by the DoD/FAA and will open in a separate window not controlled by AirNav.

 

 
 

Would you like to see your business listed on this page?

 If your business provides an interesting product or service to pilots, flight crews, aircraft, or users of the Wrens Memorial Airport, you should consider listing it here.  To start the listing process, click on the button below
 
Add a business
 

Other Pages about Wrens Memorial Airport

jcmservices.net/wrensinf.htm
www.jcmservices.net/65j2.htm
 
Update a link
 
Copyright © AirNav, LLC. All rights reserved. Privacy Policy  Contact